Date String (YYYY-MM-DD hh:mm:ss) UTC,Instrument flags,absolute air pressure of the measurement (hPa),sample flow rate (lpm),inlet stack bypass flow (lpm),air temperature of the measurement (°C),ambient temperature measured by the external sensor (°C),aerosol sample conditioner tube jacket temperature (°C),OPC LED temperature (°C),internal box temperature (°C),relative humidity of the measurement (%),span deviation,mass concentration of particles derived from Lorenz-Mie calculation of OPC scattering (μg/m³),mass concentration of particles derived from Lorenz-Mie calculation of OPC scattering (μg/m³),mass concentration of particles derived from Lorenz-Mie calculation of OPC scattering (μg/m³)
DateTimeUTC,F1_M11,P_M11,Q1_M11,Q2_M11,T1_M11,T2_M11,T3_M11,T4_M11,T5_M11,U1_M11,ZSPAN_M11,X2_M11,X0_M11,X1_M11
2023-07-22 21:00:00,SystemResetWarning,0834.9,5.01,000.00,028.4,025.4,000.0,036.7,029.8,27.4,0000.0,0005.28,0009.02,0004.87
2023-07-22 21:01:00,SystemResetWarning,0835.0,5.00,000.00,028.5,025.8,000.0,036.8,029.9,28.5,0000.0,0005.28,0009.18,0004.87
2023-07-22 21:02:00,SystemResetWarning,0834.7,5.00,000.00,028.5,026.3,000.0,036.8,030.1,27.4,0000.0,0005.28,0009.32,0004.87
2023-07-22 21:03:00,SystemResetWarning,0835.1,4.99,000.00,028.5,026.7,000.0,036.8,030.2,27.7,0000.0,0005.30,0009.37,0004.88
2023-07-22 21:04:00,SystemResetWarning,0835.1,4.99,000.00,028.6,027.1,000.0,036.8,030.3,25.9,0000.0,0005.29,0009.34,0004.88
2023-07-22 21:05:00,SystemResetWarning,0835.0,4.99,000.00,028.6,027.4,000.0,036.9,030.4,25.9,0000.0,0005.31,0009.36,0004.88
2023-07-22 21:06:00,SystemResetWarning,0834.7,4.99,000.00,028.7,027.3,000.0,036.9,030.4,25.5,0000.0,0005.28,0009.26,0004.87
2023-07-22 21:07:00,SystemResetWarning,0834.6,5.00,000.00,028.7,025.8,000.0,036.8,030.2,27.4,0000.0,0005.26,0009.13,0004.88
2023-07-22 21:08:00,SystemResetWarning,0834.6,5.02,000.00,028.6,024.8,000.0,036.7,030.0,28.5,0000.0,0005.28,0009.14,0004.88
2023-07-22 21:09:00,SystemResetWarning,0834.6,5.01,000.00,028.5,024.9,000.0,036.7,029.9,27.2,0000.0,0005.29,0009.09,0004.90
2023-07-22 21:10:00,SystemResetWarning,0834.6,4.99,000.00,028.5,025.3,000.0,036.7,029.9,29.4,0000.0,0005.31,0009.21,0004.92
2023-07-22 21:11:00,SystemResetWarning,0834.7,4.99,000.00,028.5,025.8,000.0,036.8,030.0,26.9,0000.0,0005.33,0009.17,0004.91
2023-07-22 21:12:00,SystemResetWarning,0834.8,5.00,000.00,028.5,026.2,000.0,036.8,030.1,26.2,0000.0,0005.32,0008.53,0004.91
2023-07-22 21:13:00,SystemResetWarning,0834.6,5.01,000.00,028.6,026.7,000.0,036.8,030.2,26.2,0000.0,0005.31,0008.41,0004.91
2023-07-22 21:14:00,SystemResetWarning,0834.7,5.01,000.00,028.6,027.1,000.0,036.8,030.4,26.7,0000.0,0005.29,0008.35,0004.92
2023-07-22 21:15:00,SystemResetWarning,0834.9,5.00,000.00,028.7,027.3,000.0,036.9,030.4,26.2,0000.0,0005.31,0008.38,0004.92
2023-07-22 21:16:00,SystemResetWarning,0834.9,4.99,000.00,028.7,026.7,000.0,036.8,030.4,26.5,0000.0,0005.30,0008.52,0004.91
2023-07-22 21:17:00,SystemResetWarning,0834.6,5.00,000.00,028.6,025.2,000.0,036.7,030.1,27.2,0000.0,0005.29,0008.51,0004.91
2023-07-22 21:18:00,SystemResetWarning,0834.5,5.01,000.00,028.6,024.8,000.0,036.7,030.0,26.8,0000.0,0005.27,0008.53,0004.91
2023-07-22 21:19:00,SystemResetWarning,0834.5,5.01,000.00,028.5,025.1,000.0,036.7,029.9,26.8,0000.0,0005.27,0009.14,0004.91
2023-07-22 21:20:00,SystemResetWarning,0834.5,5.00,000.00,028.5,025.5,000.0,036.7,029.9,27.9,0000.0,0005.25,0009.14,0004.90
2023-07-22 21:21:00,SystemResetWarning,0834.5,5.00,000.00,028.5,026.0,000.0,036.8,030.0,29.7,0000.0,0005.23,0009.13,0004.91
2023-07-22 21:22:00,SystemResetWarning,0834.5,5.00,000.00,028.5,026.5,000.0,036.8,030.1,29.3,0000.0,0005.26,0009.22,0004.91
2023-07-22 21:23:00,SystemResetWarning,0834.5,4.99,000.00,028.6,026.9,000.0,036.8,030.3,28.9,0000.0,0005.29,0009.14,0004.92
2023-07-22 21:24:00,SystemResetWarning,0834.5,5.00,000.00,028.6,027.2,000.0,036.8,030.4,26.7,0000.0,0005.31,0009.08,0004.93
2023-07-22 21:25:00,SystemResetWarning,0834.5,5.00,000.00,028.7,027.5,000.0,036.9,030.4,28.1,0000.0,0005.33,0009.19,0004.93
2023-07-22 21:26:00,SystemResetWarning,0834.5,4.99,000.00,028.7,027.1,000.0,036.8,030.4,28.0,0000.0,0005.30,0009.54,0004.92
2023-07-22 21:27:00,SystemResetWarning,0834.5,5.01,000.00,028.7,025.5,000.0,036.8,030.2,28.3,0000.0,0005.31,0009.56,0004.94
2023-07-22 21:28:00,SystemResetWarning,0834.5,5.00,000.00,028.6,024.9,000.0,036.7,030.0,27.5,0000.0,0005.34,0009.55,0004.94
2023-07-22 21:29:00,SystemResetWarning,0834.5,5.01,000.00,028.5,025.1,000.0,036.7,029.9,25.1,0000.0,0005.36,0009.63,0004.95
2023-07-22 21:30:00,SystemResetWarning,0834.5,5.01,000.00,028.5,025.5,000.0,036.8,029.9,25.6,0000.0,0005.37,0009.20,0004.94
2023-07-22 21:31:00,SystemResetWarning,0834.5,4.99,000.00,028.5,026.0,000.0,036.8,030.0,26.2,0000.0,0005.40,0009.09,0004.95
2023-07-22 21:32:00,SystemResetWarning,0834.5,5.00,000.00,028.6,026.5,000.0,036.8,030.2,26.9,0000.0,0005.41,0009.59,0004.96
2023-07-22 21:33:00,SystemResetWarning,0834.5,5.00,000.00,028.6,026.9,000.0,036.9,030.3,28.5,0000.0,0005.38,0009.81,0004.96
2023-07-22 21:34:00,SystemResetWarning,0834.5,5.00,000.00,028.6,027.2,000.0,036.9,030.4,28.0,0000.0,0005.37,0009.81,0004.97
2023-07-22 21:35:00,SystemResetWarning,0834.5,4.99,000.00,028.7,026.9,000.0,036.9,030.4,25.8,0000.0,0005.35,0009.84,0004.97
2023-07-22 21:36:00,SystemResetWarning,0834.5,5.00,000.00,028.6,025.4,000.0,036.8,030.2,25.6,0000.0,0005.32,0009.86,0004.96
2023-07-22 21:37:00,SystemResetWarning,0834.5,5.01,000.00,028.6,024.8,000.0,036.7,030.1,26.1,0000.0,0005.32,0010.05,0004.96
2023-07-22 21:38:00,SystemResetWarning,0834.4,5.00,000.00,028.5,025.0,000.0,036.7,029.9,25.8,0000.0,0005.33,0010.03,0004.96
2023-07-22 21:39:00,SystemResetWarning,0834.5,4.99,000.00,028.5,025.4,000.0,036.8,029.9,27.6,0000.0,0005.32,0010.18,0004.96
2023-07-22 21:40:00,SystemResetWarning,0834.5,5.00,000.00,028.5,025.9,000.0,036.8,030.0,27.5,0000.0,0005.32,0010.16,0004.96
2023-07-22 21:41:00,SystemResetWarning,0834.4,5.01,000.00,028.5,026.3,000.0,036.8,030.2,26.3,0000.0,0005.30,0010.16,0004.96
2023-07-22 21:42:00,SystemResetWarning,0834.4,5.01,000.00,028.6,026.8,000.0,036.8,030.3,28.9,0000.0,0005.30,0010.58,0004.97
2023-07-22 21:43:00,SystemResetWarning,0834.4,5.00,000.00,028.6,027.1,000.0,036.9,030.4,28.1,0000.0,0005.32,0010.28,0004.98
2023-07-22 21:44:00,SystemResetWarning,0834.4,4.99,000.00,028.7,027.4,000.0,036.9,030.4,29.4,0000.0,0005.33,0009.86,0004.99
2023-07-22 21:45:00,SystemResetWarning,0834.4,4.99,000.00,028.7,027.3,000.0,036.9,030.5,29.0,0000.0,0005.32,0010.17,0004.98
2023-07-22 21:46:00,SystemResetWarning,0834.4,5.00,000.00,028.7,025.7,000.0,036.8,030.3,27.4,0000.0,0005.32,0010.18,0004.98
2023-07-22 21:47:00,SystemResetWarning,0834.4,5.00,000.00,028.6,024.9,000.0,036.7,030.1,26.5,0000.0,0005.33,0010.14,0005.00
2023-07-22 21:48:00,SystemResetWarning,0834.3,5.01,000.00,028.6,025.0,000.0,036.7,030.0,29.1,0000.0,0005.37,0010.40,0005.01
2023-07-22 21:49:00,SystemResetWarning,0834.4,5.01,000.00,028.5,025.4,000.0,036.8,030.0,27.2,0000.0,0005.39,0010.01,0005.03
2023-07-22 21:50:00,SystemResetWarning,0834.4,4.99,000.00,028.5,025.9,000.0,036.8,030.1,27.4,0000.0,0005.41,0009.83,0005.05
2023-07-22 21:51:00,SystemResetWarning,0834.4,5.00,000.00,028.6,026.4,000.0,036.8,030.2,28.1,0000.0,0005.43,0009.79,0005.08
2023-07-22 21:52:00,SystemResetWarning,0834.3,5.01,000.00,028.6,026.8,000.0,036.8,030.3,27.1,0000.0,0005.46,0009.92,0005.10
2023-07-22 21:53:00,SystemResetWarning,0834.3,4.99,000.00,028.6,027.1,000.0,036.9,030.4,26.9,0000.0,0005.48,0009.54,0005.11
2023-07-22 21:54:00,SystemResetWarning,0834.4,4.99,000.00,028.7,027.4,000.0,036.9,030.5,28.1,0000.0,0005.48,0009.76,0005.11
2023-07-22 21:55:00,SystemResetWarning,0834.3,5.00,000.00,028.7,026.6,000.0,036.9,030.4,26.5,0000.0,0005.49,0009.79,0005.12
2023-07-22 21:56:00,SystemResetWarning,0834.3,5.01,000.00,028.7,025.2,000.0,036.8,030.1,26.0,0000.0,0005.54,0010.38,0005.14
2023-07-22 21:57:00,SystemResetWarning,0834.4,5.00,000.00,028.6,024.9,000.0,036.7,030.0,25.4,0000.0,0005.58,0010.88,0005.16
2023-07-22 21:58:00,SystemResetWarning,0834.5,5.01,000.00,028.5,025.2,000.0,036.7,029.9,26.2,0000.0,0005.64,0010.97,0005.17
2023-07-22 21:59:00,SystemResetWarning,0834.7,5.00,000.00,028.5,025.6,000.0,036.8,030.0,29.2,0000.0,0005.62,0010.40,0005.18
